GSAT-29 (43698 NORAD) Tracking and Keplerian Element Data

This shows tracking and keplerian element data for the satellite.

Feedback or suggestion? Click here.




ElementValue
Catalog43698
NameGSAT-29
Epoch Orbit2164
Epoch Day286.86229983
Epoch Year2024
RAAN115.5096
Inclination0.0299
Eccentricity0.0002531
Argument of Perigee92.3865
Mean Anonmoly179.5058
Mean Motion1.00273081
Decay Rate8.4E-07
L11 43698U 18089A 24286.86229983 .00000084 00000+0 00000+0 0 9995
L22 43698 0.0299 115.5096 0002531 92.3865 179.5058 1.00273081 21643



Live tracking and technical data element details for GSAT-29 (NORAD 43698). GSAT-29 can be tracked NOW for your location showing map with azimuth and elevation plus other details from your city location.







IsCatalogInMostPopularTable: catalog: 43698, numindb: 595
Update: records affected: 1



GetName: 43698 GSAT-29

Hit Count: updated at: Tue, 03 Dec 2024 03:03:08 GMT